EW3345 Weather Reports


time (UTC)temp
C
wind
direction
speed
KPH
gust
KPH
rain 1hr
cm
rain 24hr
cm
rain mn
cm
humidity
%
barometer
mb
20260906051137 11 293 4.8 6.4 0.00 0.46 0.00 95 1005.2
20260906050137 11 293 4.8 6.4 0.00 0.46 0.00 95 1005.1
20260906045117 11 0 4.8 11.3 0.00 0.46 0.00 95 1004.9
20260906044137 11 0 6.4 8.0 0.00 0.46 0.00 95 1004.8
20260906043117 11 0 4.8 6.4 0.00 0.46 0.00 95 1004.7
20260906042117 11 0 4.8 4.8 0.00 0.46 0.00 95 1004.6
20260906041137 11 293 4.8 6.4 0.00 0.48 0.00 95 1004.3
20260906040118 11 0 6.4 8.0 0.00 0.48 0.00 95 1004.2
20260906035117 11 0 3.2 4.8 0.00 0.48 0.00 95 1004.1
20260906034117 11 0 4.8 6.4 0.00 0.51 0.00 95 1004.0
20260906033117 11 0 4.8 6.4 0.00 0.51 0.00 96 1003.9
20260906032117 11 0 4.8 6.4 0.00 0.51 0.00 95 1003.6
20260906031137 11 0 3.2 3.2 0.00 0.51 0.00 95 1003.4
20260906030117 10 270 1.6 3.2 0.00 0.51 0.00 95 1003.3
20260906025137 10 0 1.6 3.2 0.00 0.51 0.00 95 1003.2
20260906024117 10 248 1.6 3.2 0.00 0.51 0.00 95 1003.1
20260906023117 10 0 1.6 3.2 0.00 0.51 0.00 95 1003.1
20260906022117 10 0 1.6 3.2 0.00 0.53 0.00 95 1003.0
20260906021137 10 270 1.6 3.2 0.00 0.53 0.00 95 1002.9
20260906020117 10 270 3.2 3.2 0.00 0.53 0.00 95 1002.8
20260906015117 10 0 3.2 4.8 0.00 0.53 0.00 95 1002.8
20260906014117 10 270 3.2 3.2 0.00 0.53 0.00 95 1002.8
20260906013117 10 270 3.2 4.8 0.00 0.53 0.00 95 1002.6
20260906012117 10 0 3.2 4.8 0.00 0.56 0.00 95 1002.6
20260906011117 10 0 3.2 4.8 0.00 0.56 0.00 95 1002.6
20260906010117 10 270 1.6 3.2 0.00 0.56 0.00 95 1002.5
20260906005117 10 0 3.2 4.8 0.00 0.58 0.00 95 1002.4
20260906004137 10 270 1.6 3.2 0.00 0.61 0.00 95 1002.4
20260906003117 10 248 3.2 4.8 0.00 0.64 0.00 95 1002.3
20260906002117 10 270 3.2 4.8 0.00 0.66 0.00 94 1002.3
20260906001117 10 0 3.2 4.8 0.00 0.69 0.00 94 1002.2
20260906000137 10 248 3.2 4.8 0.00 0.71 0.00 94 1002.2
20260905235116 10 270 3.2 3.2 0.00 0.76 0.00 94 1002.2
20260905234117 10 0 3.2 4.8 0.00 0.79 0.00 94 1002.1
20260905233116 10 225 4.8 6.4 0.00 0.79 0.00 94 1002.2
20260905232116 10 248 3.2 3.2 0.00 0.79 0.00 94 1002.1
20260905231116 10 0 3.2 4.8 0.00 0.81 0.00 94 1002.1
20260905230116 11 0 1.6 3.2 0.00 0.81 0.00 94 1002.1
20260905225117 11 225 3.2 4.8 0.00 0.81 0.00 94 1002.0
20260905224137 11 225 1.6 3.2 0.00 0.84 0.00 94 1001.9
20260905223116 11 248 1.6 1.6 0.00 0.84 0.00 94 1001.9
20260905222136 11 248 1.6 3.2 0.00 0.86 0.00 93 1001.8
20260905221117 11 0.0 1.6 0.00 0.86 0.00 93 1001.8
20260905220117 11 248 1.6 3.2 0.00 0.89 0.00 93 1001.7
20260905215116 11 0.0 1.6 0.00 0.89 0.00 93 1001.7
20260905214116 11 0.0 0.0 0.00 0.89 0.00 93 1001.6
20260905213116 11 293 1.6 3.2 0.00 0.89 0.00 93 1001.6
20260905212116 11 293 4.8 6.4 0.00 0.89 0.00 93 1001.6
20260905211116 12 293 4.8 6.4 0.00 0.89 0.00 93 1001.5
20260905210116 12 315 4.8 6.4 0.00 0.89 0.00 93 1001.5
20260905205117 12 293 4.8 4.8 0.00 0.89 0.89 93 1001.3
20260905204117 12 293 3.2 3.2 0.00 0.89 0.89 94 1001.4
20260905203117 12 293 3.2 4.8 0.00 0.89 0.89 94 1001.2
20260905202117 12 293 4.8 6.4 0.00 0.89 0.89 94 1001.2
20260905201117 12 0 6.4 8.0 0.00 0.89 0.89 95 1001.0
20260905200137 12 293 4.8 8.0 0.00 0.89 0.89 95 1000.9
20260905195117 12 293 3.2 3.2 0.00 0.89 0.89 95 1000.9
20260905194116 12 0 1.6 3.2 0.00 0.89 0.89 95 1000.8
20260905193117 12 293 1.6 3.2 0.00 0.89 0.89 95 1000.8
20260905192117 12 0.0 0.0 0.00 0.89 0.89 95 1000.8
20260905191137 12 270 1.6 3.2 0.00 0.89 0.89 95 1000.7
20260905190116 12 0 1.6 1.6 0.00 0.89 0.89 95 1000.6
20260905185117 12 270 1.6 3.2 0.00 0.89 0.89 94 1000.6
20260905184117 12 270 1.6 3.2 0.00 0.89 0.89 94 1000.5
20260905183117 12 270 1.6 3.2 0.00 0.89 0.89 94 1000.5
20260905182117 12 225 3.2 4.8 0.00 0.89 0.89 94 1000.4
20260905181137 12 270 1.6 3.2 0.00 0.89 0.89 94 1000.5
20260905180117 12 270 1.6 1.6 0.00 0.89 0.89 94 1000.4
20260905175116 12 270 1.6 3.2 0.00 0.89 0.89 94 1000.4
20260905174137 12 270 1.6 1.6 0.00 0.91 0.89 93 1000.2
20260905173117 12 270 1.6 3.2 0.00 0.91 0.89 93 1000.3
20260905172116 13 225 3.2 4.8 0.00 0.91 0.89 93 1000.3
20260905171117 13 0.0 0.0 0.00 0.91 0.89 93 1000.1
20260905170137 13 0.0 1.6 0.00 0.91 0.89 93 1000.0
20260905165116 13 225 1.6 1.6 0.00 0.91 0.89 92 999.9
20260905164116 13 0.0 1.6 0.00 0.91 0.89 92 999.9
20260905163116 13 0.0 0.0 0.00 0.91 0.89 92 999.7
20260905162116 13 225 3.2 4.8 0.00 0.91 0.89 92 999.8
20260905161116 13 248 3.2 4.8 0.00 0.91 0.89 92 999.7
20260905160116 13 248 3.2 4.8 0.00 0.91 0.89 92 999.6
20260905155136 13 293 1.6 3.2 0.00 0.91 0.89 92 999.4
20260905154116 13 293 1.6 3.2 0.00 0.91 0.89 92 999.3
20260905153136 13 270 1.6 3.2 0.00 0.91 0.89 92 999.1
20260905152156 13 270 3.2 4.8 0.00 0.91 0.89 91 999.1
20260905151116 13 270 3.2 4.8 0.00 0.91 0.89 91 998.9
20260905150116 13 248 3.2 6.4 0.00 0.91 0.89 90 998.8
20260905145136 13 248 1.6 3.2 0.00 0.91 0.89 90 998.8
20260905144116 13 270 1.6 3.2 0.03 0.91 0.89 90 998.7
20260905143116 13 270 1.6 3.2 0.10 0.91 0.89 91 998.6
20260905142136 13 248 3.2 4.8 0.23 0.91 0.89 90 998.6
20260905141116 13 270 3.2 4.8 0.30 0.91 0.89 91 998.6
20260905140116 13 315 4.8 6.4 0.33 0.91 0.89 91 998.5
20260905135116 13 293 4.8 6.4 0.33 0.91 0.89 91 998.4
20260905134136 13 293 3.2 3.2 0.33 0.89 0.89 91 998.3
20260905133116 13 293 4.8 4.8 0.23 0.81 0.79 90 998.4
20260905132116 13 293 4.8 4.8 0.13 0.71 0.69 89 998.3
20260905131116 14 293 9.7 14.5 0.05 0.61 0.61 87 998.2
20260905130116 15 270 8.0 11.3 0.00 0.58 0.56 87 998.1
20260905125116 15 270 4.8 6.4 0.00 0.58 0.56 84 998.1
20260905124116 15 248 6.4 8.0 0.00 0.58 0.56 84 998.0
20260905123116 15 270 8.0 11.3 0.00 0.58 0.56 83 997.9
20260905122136 15 293 4.8 6.4 0.00 0.58 0.56 84 997.7
20260905121116 15 293 3.2 4.8 0.00 0.58 0.56 84 997.7
20260905120116 15 0.0 1.6 0.00 0.58 0.56 83 997.7
20260905115116 16 315 1.6 3.2 0.00 0.58 0.56 82 997.6
20260905114116 16 293 6.4 11.3 0.00 0.58 0.56 82 997.5
20260905113136 16 315 6.4 11.3 0.00 0.58 0.56 84 997.5
20260905112116 15 293 6.4 9.7 0.00 0.58 0.56 86 997.5
20260905111116 15 293 8.0 9.7 0.00 0.58 0.56 86 997.4
20260905110116 15 293 6.4 8.0 0.00 0.58 0.56 88 997.2
20260905105156 15 270 6.4 6.4 0.00 0.61 0.56 89 997.1
20260905104136 14 270 8.0 9.7 0.00 0.61 0.56 90 997.1
20260905103116 14 248 8.0 9.7 0.00 0.61 0.56 91 997.1
20260905102116 14 293 6.4 8.0 0.00 0.61 0.56 93 996.9
20260905101116 13 293 6.4 8.0 0.00 0.61 0.56 93 996.9
20260905100116 13 270 6.4 9.7 0.03 0.61 0.56 94 996.8
20260905095136 13 270 4.8 6.4 0.03 0.61 0.56 94 996.8
20260905094136 13 270 4.8 6.4 0.03 0.61 0.56 94 996.7
20260905093116 13 248 4.8 6.4 0.03 0.61 0.56 94 996.6
20260905092135 12 270 4.8 6.4 0.03 0.64 0.56 94 996.6
20260905091116 12 270 3.2 3.2 0.03 0.74 0.56 94 996.5
20260905090115 12 0 3.2 4.8 0.03 0.94 0.53 94 996.5
20260905085135 12 270 4.8 6.4 0.08 1.09 0.53 94 996.3
20260905084136 12 248 3.2 4.8 0.10 1.27 0.53 94 996.2
20260905083115 13 225 3.2 4.8 0.10 1.57 0.53 94 996.1
20260905082115 13 0.0 0.0 0.10 1.70 0.53 94 996.1
20260905081157 13 248 1.6 3.2 0.10 1.78 0.53 94 996.0
20260905080118 13 0 1.6 1.6 0.08 1.80 0.51 94 996.0
20260905075137 13 270 1.6 3.2 0.03 1.75 0.46 94 995.9
20260905074117 13 225 1.6 3.2 0.00 1.75 0.43 94 995.8
20260905073117 13 0.0 0.0 0.00 1.75 0.43 94 995.7
20260905072117 13 0.0 3.2 0.00 1.75 0.43 95 995.7
20260905071117 13 248 1.6 3.2 0.00 1.75 0.43 94 995.5
20260905070117 13 203 1.6 1.6 0.00 1.75 0.43 95 995.5
20260905065117 13 135 3.2 3.2 0.00 1.75 0.43 95 995.2
20260905064117 12 0.0 0.0 0.00 1.75 0.43 95 995.2
20260905063117 12 0.0 0.0 0.00 1.75 0.43 95 995.1
20260905062137 12 0.0 0.0 0.00 1.75 0.43 95 995.1
20260905061117 12 0.0 0.0 0.00 1.75 0.43 95 995.0
20260905060117 12 0.0 0.0 0.00 1.75 0.43 95 994.9
20260905055117 12 0.0 0.0 0.00 1.75 0.43 95 994.9
20260905054137 12 0.0 0.0 0.00 1.83 0.43 95 994.8
20260905053117 12 0.0 0.0 0.00 1.83 0.43 95 994.7
20260905052117 12 0.0 0.0 0.00 1.83 0.43 95 994.7